This demonstration page uses our WeatherBlox Daily Observations layout. Learn more.

Left ArrowRight Arrow

Hourly Observations for February 21, 2017

Temp ( °F °C ) Dew Point ( °F °C ) Humidity (%) Winds ( mph kmh ) Pressure ( in mb ) Visibility ( mi km ) Precip ( " mm )
12:53 am 00:53 Clear 38 3.3 33 0.6 83 83 SSW 16 26 29.65 1004 10 16 0.00 0.00
1:53 am 01:53 Clear 36 2.2 32 0 86 86 SSW 13 20 29.66 1004 10 16 0.00 0.00
2:53 am 02:53 Clear 37 2.8 32 0 82 82 SSW 14 22 29.67 1005 10 16 0.00 0.00
3:53 am 03:53 Clear 39 3.9 32 0 76 76 SSW 18 30 29.65 1004 10 16 0.00 0.00
4:53 am 04:53 Clear 38 3.3 31 -0.6 76 76 SW 16 26 29.67 1005 10 16 0.00 0.00
5:53 am 05:53 Clear 36 2.2 31 -0.6 82 82 WSW 12 19 29.67 1005 10 16 0.00 0.00
6:08 am 06:08 Clear 37 3 30 -1 75 75 WSW 10 17 29.68 1005 10 16 0.00 0.00
6:53 am 06:53 Clear 37 2.8 31 -0.6 79 79 W 10 17 29.68 1005 10 16 0.00 0.00
7:53 am 07:53 Cloudy 36 2.2 31 -0.6 82 82 WSW 8 13 29.70 1006 10 16 0.00 0.00
8:53 am 08:53 Cloudy 38 3.3 31 -0.6 76 76 Calm 29.69 1005 10 16 0.00 0.00
9:53 am 09:53 Cloudy 37 2.8 32 0 82 82 Calm 29.70 1006 10 16 0.00 0.00
10:53 am 10:53 Cloudy 39 3.9 32 0 76 76 W 3 6 29.72 1006 10 16 0.00 0.00
11:53 am 11:53 Cloudy with Light Rain 39 3.9 32 0 76 76 Calm 29.72 1007 10 16 0.00 0.03
12:37 pm 12:37 Cloudy with Light Rain 38 3.3 35 1.7 89 89 WNW 3 6 29.77 1008 6 10 0.01 0.25
12:53 pm 12:53 Cloudy with Light Rain 38 3.3 35 1.7 89 89 W 3 6 29.72 1006 6 10 0.03 0.76
1:53 pm 13:53 Cloudy with Light Rain 37 2.8 35 1.7 93 93 S 6 9 29.71 1006 10 16 0.04 1.02
2:02 pm 14:02 Cloudy with Light Rain 37 3 36 2 93 93 S 5 7 29.74 1007 10 16 0.00 0.00
2:53 pm 14:53 Cloudy 37 2.8 35 1.7 93 93 SSW 5 7 29.72 1006 10 16 0.00 0.03
3:53 pm 15:53 Cloudy 37 2.8 36 2.2 96 96 WNW 5 7 29.73 1007 10 16 0.00 0.03
4:53 pm 16:53 Cloudy 37 2.8 36 2.2 96 96 WNW 3 6 29.74 1007 10 16 0.01 0.25
5:53 pm 17:53 Cloudy 37 2.8 36 2.2 96 96 Calm 29.73 1007 10 16 0.00 0.00
6:53 pm 18:53 Clear 34 1.1 33 0.6 97 97 ENE 3 6 29.73 1007 10 16 0.00 0.00
7:22 pm 19:22 Mostly Cloudy 34 1 34 1 100 100 E 3 6 29.77 1008 10 16 0.00 0.00
7:53 pm 19:53 Cloudy 34 1.1 34 1.1 100 100 NE 3 6 29.75 1007 10 16 0.00 0.00
8:23 pm 20:23 Cloudy 34 1.1 33 0.6 97 97 NE 6 9 29.80 1009 10 16 0.00 0.00
8:53 pm 20:53 Cloudy 35 1.7 34 1.1 96 96 NE 5 7 29.76 1008 10 16 0.00 0.00
9:16 pm 21:16 Cloudy 34 1 34 1 100 100 ENE 6 9 29.80 1009 8 13 0.00 0.00
9:25 pm 21:25 Cloudy 35 1.7 34 1.1 96 96 ENE 3 6 29.80 1009 7 11 0.00 0.00
9:33 pm 21:33 Cloudy 35 1.7 34 1.1 96 96 ENE 3 6 29.80 1009 8 13 0.00 0.00
9:53 pm 21:53 Cloudy 35 1.7 34 1.1 96 96 N 5 7 29.78 1009 7 11 0.00 0.00
10:39 pm 22:39 Cloudy with Mist and Fog 34 1.1 33 0.6 97 97 NNE 3 6 29.80 1009 5 8 0.00 0.00
10:53 pm 22:53 Cloudy with Mist and Fog 34 1.1 33 0.6 97 97 NNE 6 9 29.79 1009 5 8 0.00 0.00
11:53 pm 23:53 Cloudy with Mist and Fog 34 1.1 33 0.6 97 97 ENE 9 15 29.81 1010 5 8 0.00 0.03

Powered by AerisWeather